Pierre, SD

10:15 AM CDT on August 22, 2017 (GMT -0500)
Pierre Regional

Weather History for KPIR - November, 2012

Change the Weather History Date:

Thursday, November 8, 2012

  Actual Average Record
Temperature  
Mean Temperature 42 °F 38 °F  
Max Temperature 50 °F 49 °F 87 °F (1999)
Min Temperature 33 °F 27 °F 8 °F (1936)
Degree Days  
Heating Degree Days 23 27  
Month to date heating degree days 209 204  
Since 1 July heating degree days 864 885  
Cooling Degree Days 0 0  
Month to date cooling degree days 0 0  
Year to date cooling degree days 1112 868  
Moisture  
Dew Point 31 °F    
Average Humidity 68    
Maximum Humidity 79    
Minimum Humidity 56    
Precipitation  
Precipitation 0.00 in 0.02 in 0.94 in (1977)
Month to date precipitation 0.07 0.23  
Year to date precipitation 10.53 18.93  
Snow  
Snow 0.00 in 0.10 in 6.00 in (1985)
Month to date snowfall 0.0 0.9  
Since 1 July snowfall 0.0 1.9  
Snow Depth 0.00 in    
Sea Level Pressure  
Sea Level Pressure 29.96 in    
Wind  
Wind Speed 13 mph (NNE)    
Max Wind Speed 24 mph    
Max Gust Speed 29 mph    
Visibility 10 miles    
Events      
T = Trace of Precipitation, MM = Missing Value Source: NWS Daily Summary

Daily Weather History Graph

Daily Weather History Graph

Search for Another Location

Airport or City:

Trip Planner

Search our weather history database for the weather conditions in past years. The results will help you decide how hot, cold, wet, or windy it might be!

Date:

Astronomy

Nov. 08, 2012 Rise Set
Actual Time 7:28 AM CST 5:20 PM CST
Civil Twilight 6:57 AM CST 5:51 PM CST
Nautical Twilight 6:22 AM CST 6:26 PM CST
Astronomical Twilight 5:48 AM CST 7:00 PM CST
Moon 1:12 AM CST (11/8) 2:14 PM CST (11/8)
Length of Visible Light 10h 54m
Length of Day
9h 52m
Waning Crescent, 32% of the Moon is Illuminated
Nov 8
Waning Crescent
Nov 13
New
Nov 20
First Quarter
Nov 28
Full
Dec 6
Last Quarter

Hourly Weather History & Observations

Time (CST) Temp. Windchill Dew Point Humidity Pressure Visibility Wind Dir Wind Speed Gust Speed Precip Events Conditions
12:53 AM 37.9 °F 35.5 °F 28.0 °F 68% 29.70 in 10.0 mi ESE 3.5 mph - N/A   Clear
1:53 AM 39.0 °F - 28.9 °F 67% 29.70 in 10.0 mi Calm Calm - N/A   Clear
2:53 AM 37.9 °F 32.1 °F 30.0 °F 73% 29.72 in 10.0 mi NNW 8.1 mph - N/A   Clear
3:53 AM 33.1 °F 26.1 °F 27.0 °F 78% 29.76 in 10.0 mi NNW 8.1 mph - N/A   Clear
5:53 AM 36.0 °F 31.1 °F 28.9 °F 76% 29.86 in 10.0 mi NNW 5.8 mph - N/A   Clear
6:53 AM 39.9 °F 32.5 °F 32.0 °F 73% 29.89 in 10.0 mi NW 12.7 mph - N/A   Clear
7:53 AM 39.9 °F 31.4 °F 33.1 °F 77% 29.92 in 10.0 mi NNW 16.1 mph - N/A   Clear
8:53 AM 46.0 °F 39.3 °F 36.0 °F 68% 29.95 in 10.0 mi NNW 16.1 mph - N/A   Clear
9:53 AM 48.0 °F - 37.0 °F 66% 29.99 in 10.0 mi North 21.9 mph 25.3 mph N/A   Clear
10:53 AM 48.9 °F - 35.1 °F 59% 30.01 in 10.0 mi NNW 20.7 mph 26.5 mph N/A   Clear
11:53 AM 48.9 °F - 34.0 °F 56% 30.02 in 10.0 mi North 20.7 mph 26.5 mph N/A   Clear
12:53 PM 48.0 °F - 33.1 °F 56% 30.02 in 10.0 mi NNW 19.6 mph 24.2 mph N/A   Clear
1:53 PM 46.9 °F - 32.0 °F 56% 30.01 in 10.0 mi North 20.7 mph 26.5 mph N/A   Clear
2:53 PM 45.0 °F 37.1 °F 30.9 °F 58% 30.01 in 10.0 mi North 19.6 mph - N/A   Clear
3:53 PM 43.0 °F 35.1 °F 30.9 °F 62% 30.03 in 10.0 mi NNE 17.3 mph 21.9 mph N/A   Clear
4:53 PM 39.9 °F 32.9 °F 30.0 °F 68% 30.04 in 10.0 mi NNE 11.5 mph - N/A   Clear
5:11 PM 39.2 °F 33.0 °F 30.2 °F 70% 30.01 in 10.0 mi NE 9.2 mph - N/A   Mostly Cloudy
5:28 PM 37.4 °F 29.3 °F 28.4 °F 70% 30.00 in 10.0 mi NE 12.7 mph - N/A   Scattered Clouds
5:35 PM 37.4 °F 29.8 °F 30.2 °F 75% 30.00 in 10.0 mi NNE 11.5 mph - N/A   Mostly Cloudy
5:53 PM 37.9 °F 30.0 °F 30.0 °F 73% 30.05 in 10.0 mi NE 12.7 mph - N/A   Overcast
6:53 PM 37.0 °F 32.4 °F 30.0 °F 76% 30.04 in 10.0 mi ENE 5.8 mph - N/A   Overcast
7:53 PM 37.9 °F 30.5 °F 30.9 °F 76% 30.04 in 10.0 mi ENE 11.5 mph - N/A   Overcast
8:53 PM 37.9 °F 28.9 °F 30.0 °F 73% 30.02 in 10.0 mi ENE 16.1 mph - N/A   Overcast
9:53 PM 37.9 °F 29.2 °F 30.0 °F 73% 30.02 in 10.0 mi East 15.0 mph - N/A   Overcast
10:53 PM 37.9 °F 30.0 °F 30.9 °F 76% 30.03 in 10.0 mi East 12.7 mph - N/A   Overcast
11:43 PM 35.6 °F 27.1 °F 30.2 °F 81% 30.00 in 10.0 mi ENE 12.7 mph - N/A   Overcast
11:53 PM 36.0 °F 26.7 °F 30.9 °F 82% 30.04 in 10.0 mi ENE 15.0 mph - N/A   Overcast